W6SNO-1 Weather Reports


time (UTC)temp
F
wind
direction
speed
knots
gust
knots
rain 1hr
in
rain 24hr
in
rain mn
in
humidity
%
barometer
mb
20260505203704 59 272 0.9 0.9 0.00 0.00 0.00 71 1016.3
20260505203200 59 334 0.0 0.9 0.00 0.00 0.00 71 1016.5
20260505202656 59 337 0.0 0.9 0.00 0.00 0.00 72 1016.2
20260505202152 59 349 0.9 0.9 0.00 0.00 0.00 74 1016.2
20260505201648 59 343 0.9 1.7 0.00 0.00 0.00 73 1016.4
20260505201147 59 339 0.0 0.9 0.00 0.00 0.00 72 1016.5
20260505200645 59 359 0.0 0.0 0.00 0.00 0.00 71 1016.5
20260505200141 59 330 0.9 0.9 0.00 0.00 0.00 71 1016.4
20260505195637 59 318 0.9 0.9 0.00 0.00 0.00 71 1016.4
20260505195135 59 345 0.0 0.0 0.00 0.00 0.00 71 1016.6
20260505194632 59 352 0.0 0.0 0.00 0.00 0.00 71 1016.5
20260505194127 59 341 0.0 0.0 0.00 0.00 0.00 71 1016.6
20260505193625 59 346 0.9 0.9 0.00 0.00 0.00 71 1016.7
20260505193121 59 355 0.0 0.9 0.00 0.00 0.00 71 1016.7
20260505192620 59 10 0.9 1.7 0.00 0.00 0.00 71 1016.8
20260505192117 59 357 0.9 1.7 0.00 0.00 0.00 70 1016.6
20260505191616 59 332 0.9 0.9 0.00 0.00 0.00 69 1016.4
20260505191113 59 329 0.0 0.9 0.00 0.00 0.00 70 1016.4
20260505190608 58 21 0.0 0.9 0.00 0.00 0.00 70 1016.5
20260505190104 58 25 0.9 0.9 0.00 0.00 0.00 71 1016.5
20260505185601 58 333 0.9 0.9 0.00 0.00 0.00 71 1016.6
20260505185057 58 349 0.9 0.9 0.00 0.00 0.00 71 1016.4
20260505184554 58 356 0.9 1.7 0.00 0.00 0.00 71 1016.4
20260505184051 58 349 0.9 0.9 0.00 0.00 0.00 71 1016.7
20260505183547 58 352 0.0 0.9 0.00 0.00 0.00 71 1016.7
20260505183045 58 344 0.0 0.0 0.00 0.00 0.00 71 1016.5
20260505182541 58 340 0.0 0.0 0.00 0.00 0.00 70 1016.5
20260505182038 58 350 0.0 0.9 0.00 0.00 0.00 71 1016.6
20260505181535 57 0 0.0 0.0 0.00 0.00 0.00 72 1016.5
20260505181032 57 337 0.0 0.0 0.00 0.00 0.00 71 1016.5
20260505180527 57 342 0.0 0.0 0.00 0.00 0.00 72 1016.4
20260505180026 57 354 0.9 0.9 0.00 0.00 0.00 72 1016.3
20260505175520 57 351 0.0 0.0 0.00 0.00 0.00 73 1016.3
20260505175018 56 358 0.9 0.9 0.00 0.00 0.00 72 1016.2
20260505174514 56 359 0.9 0.9 0.00 0.00 0.00 72 1016.4
20260505174010 57 344 0.9 1.7 0.00 0.00 0.00 72 1016.3
20260505173507 57 2 0.0 0.0 0.00 0.00 0.00 71 1015.9
20260505173004 57 342 0.0 0.0 0.00 0.00 0.00 71 1016.1
20260505172503 57 348 0.9 0.9 0.00 0.00 0.00 71 1015.8
20260505172003 56 3 0.0 0.9 0.00 0.00 0.00 72 1016.0
20260505171459 56 3 0.0 0.9 0.00 0.00 0.00 72 1016.0
20260505170955 56 9 0.0 0.9 0.00 0.00 0.00 73 1016.0
20260505170452 56 339 0.0 0.9 0.00 0.00 0.00 73 1016.0
20260505165948 56 352 1.7 1.7 0.00 0.00 0.00 74 1016.0
20260505165444 56 355 0.9 0.9 0.00 0.00 0.00 73 1015.7
20260505164939 56 341 0.9 0.9 0.00 0.00 0.00 72 1015.9
20260505164436 56 1 0.0 0.0 0.00 0.00 0.00 73 1015.7
20260505163934 57 349 0.9 1.7 0.00 0.00 0.00 74 1015.8
20260505163433 56 0 0.9 0.9 0.00 0.00 0.00 74 1015.8
20260505162931 56 356 0.9 0.9 0.00 0.00 0.00 74 1015.6
20260505162427 56 349 0.0 0.0 0.00 0.00 0.00 75 1015.8
20260505161924 56 342 0.0 0.9 0.00 0.00 0.00 75 1015.9
20260505161420 56 351 0.0 0.0 0.00 0.00 0.00 75 1015.6
20260505160918 56 350 0.0 0.0 0.00 0.00 0.00 75 1016.0
20260505160416 0 0.0 0.0 0.00 0.00 0.00 1015.8
20260505153355 54 317 0.0 0.9 0.00 0.00 0.00 77 1015.6
20260505152852 0 0.0 0.0 0.00 0.00 0.00 1015.8
20260505152350 0 0.0 0.0 0.00 0.00 0.00 1015.7
20260505151849 53 320 0.0 0.0 0.00 0.00 0.00 78 1015.5
20260505151346 53 320 0.0 0.0 0.00 0.00 0.00 78 1015.6
20260505150843 54 332 0.0 0.0 0.00 0.00 0.00 77 1015.5
20260505150340 54 332 0.0 0.0 0.00 0.00 0.00 77 1015.4
20260505140259 52 359 0.0 0.0 0.00 0.00 0.00 82 1015.1
20260505130222 53 4 0.0 0.0 0.00 0.00 0.00 79 1014.9
20260505124712 52 4 0.0 0.0 0.00 0.00 0.00 79 1015.0
20260505124209 52 4 0.0 0.0 0.00 0.00 0.00 79 1015.1
20260505123705 52 4 0.0 0.0 0.00 0.00 0.00 80 1014.9
20260505123202 52 4 0.0 0.0 0.00 0.00 0.00 79 1015.2
20260505122658 52 4 0.0 0.0 0.00 0.00 0.00 80 1015.1
20260505122155 52 4 0.0 0.0 0.00 0.00 0.00 80 1015.0
20260505121652 52 6 0.0 0.0 0.00 0.00 0.00 80 1015.1
20260505121149 52 6 0.0 0.0 0.00 0.00 0.00 80 1015.1
20260505120645 52 6 0.0 0.0 0.00 0.00 0.00 80 1015.0
20260505120141 52 6 0.0 0.0 0.00 0.00 0.00 79 1014.9
20260505115635 52 6 0.0 0.0 0.00 0.00 0.00 79 1014.9
20260505115134 52 7 0.0 0.0 0.00 0.00 0.00 78 1015.3
20260505114630 52 7 0.0 0.0 0.00 0.00 0.00 78 1015.1
20260505114126 52 359 0.0 0.0 0.00 0.00 0.00 79 1015.1
20260505113623 52 359 0.0 0.0 0.00 0.00 0.00 79 1015.3
20260505113119 52 359 0.0 0.0 0.00 0.00 0.00 79 1015.2
20260505112615 52 359 0.0 0.0 0.00 0.00 0.00 78 1015.0
20260505112114 52 358 0.0 0.0 0.00 0.00 0.00 78 1015.0
20260505111613 52 359 0.0 0.0 0.00 0.00 0.00 79 1015.0
20260505111109 52 359 0.0 0.0 0.00 0.00 0.00 77 1015.1
20260505110606 52 359 0.0 0.0 0.00 0.00 0.00 77 1015.2
20260505102039 52 1 0.0 0.0 0.00 0.00 0.00 78 1014.9
20260505101537 52 358 0.0 0.0 0.00 0.00 0.00 79 1015.2
20260505101033 52 358 0.0 0.0 0.00 0.00 0.00 79 1015.2
20260505100530 52 358 0.0 0.0 0.00 0.00 0.00 79 1015.2
20260505100027 52 7 0.0 0.0 0.00 0.00 0.00 80 1015.1
20260505095523 52 7 0.0 0.0 0.00 0.00 0.00 80 1015.2
20260505095019 53 8 0.0 0.0 0.00 0.00 0.00 80 1015.2
20260505094516 53 9 0.0 0.0 0.00 0.00 0.00 79 1015.2
20260505094012 53 9 0.0 0.0 0.00 0.00 0.00 81 1015.2
20260505093509 53 9 0.0 0.0 0.00 0.00 0.00 80 1015.4
20260505093006 54 9 0.0 0.0 0.00 0.00 0.00 79 1015.4
20260505092504 53 9 0.0 0.0 0.00 0.00 0.00 78 1015.4
20260505092001 53 9 0.0 0.0 0.00 0.00 0.00 79 1015.2
20260505091459 53 9 0.0 0.0 0.00 0.00 0.00 79 1015.4
20260505090957 53 9 0.0 0.0 0.00 0.00 0.00 79 1015.5
20260505090454 53 9 0.0 0.0 0.00 0.00 0.00 79 1015.5
20260505085951 53 355 0.0 0.0 0.00 0.00 0.00 79 1015.6
20260505085449 53 355 0.0 0.0 0.00 0.00 0.00 79 1015.5
20260505084947 53 2 0.0 0.0 0.00 0.00 0.00 79 1015.7
20260505084446 53 3 0.0 0.0 0.00 0.00 0.00 80 1015.8
20260505083943 53 2 1.7 1.7 0.00 0.00 0.00 81 1015.8
20260505083440 53 355 0.0 0.0 0.00 0.00 0.00 82 1015.8
20260505082936 53 355 0.0 0.0 0.00 0.00 0.00 82 1015.8
20260505082432 53 1 0.0 0.0 0.00 0.00 0.00 82 1015.9
20260505081929 53 342 0.0 0.9 0.00 0.00 0.00 83 1015.6
20260505081426 53 304 0.0 0.0 0.00 0.00 0.00 83 1015.9
20260505080922 53 304 0.0 0.0 0.00 0.00 0.00 83 1015.9
20260505080419 53 345 0.0 0.0 0.00 0.00 0.00 83 1015.9
20260505075914 53 345 0.0 0.0 0.00 0.00 0.00 83 1015.9
20260505075411 53 339 0.0 0.0 0.00 0.00 0.00 83 1016.1
20260505074909 53 246 0.9 0.9 0.00 0.00 0.00 83 1015.8
20260505074406 53 338 0.0 0.9 0.00 0.00 0.00 83 1015.8
20260505073903 53 353 0.0 0.0 0.00 0.00 0.00 84 1015.9
20260505073401 53 353 0.0 0.0 0.00 0.00 0.00 83 1015.8
20260505072858 53 354 0.0 0.0 0.00 0.00 0.00 83 1015.7
20260505072354 53 353 0.0 0.0 0.00 0.00 0.00 83 1015.8
20260505071850 53 342 0.0 0.0 0.00 0.00 0.00 83 1015.4
20260505071346 53 9 0.0 0.9 0.00 0.00 0.00 82 1015.6
20260505070845 53 6 0.0 0.0 0.00 0.00 0.00 82 1015.7
20260505070341 54 3 0.0 0.0 0.00 0.00 0.00 82 1015.5
20260505065836 54 3 0.0 0.0 0.00 0.00 0.00 82 1015.6
20260505065333 0 0.0 0.0 0.00 0.00 0.00 1015.6
20260505064830 54 351 0.0 0.0 0.00 0.00 0.00 81 1015.3
20260505064327 54 351 0.0 0.0 0.00 0.00 0.00 81 1015.4
20260505063825 54 354 0.0 0.0 0.00 0.00 0.00 81 1015.5
20260505063321 54 6 0.9 0.9 0.00 0.00 0.00 81 1015.6
20260505062818 0 0.0 0.0 0.00 0.00 0.00 1015.4
20260505062315 54 2 0.0 0.0 0.00 0.00 0.00 79 1015.3
20260505061812 54 2 0.0 0.0 0.00 0.00 0.00 79 1015.3
20260505061310 54 16 0.0 0.9 0.00 0.00 0.00 79 1015.3
20260505060807 55 358 0.0 0.0 0.00 0.00 0.00 79 1015.2
20260505060304 55 358 0.0 0.0 0.00 0.00 0.00 79 1015.2
20260505055759 55 3 0.0 0.0 0.00 0.00 0.00 79 1015.3
20260505055256 55 4 0.0 0.9 0.00 0.00 0.00 79 1015.3
20260505054753 55 359 0.0 0.0 0.00 0.00 0.00 79 1015.3
20260505054251 55 348 0.0 0.0 0.00 0.00 0.00 78 1015.5
20260505053749 55 348 0.0 0.0 0.00 0.00 0.00 78 1015.7
20260505053245 55 357 0.9 0.9 0.00 0.00 0.00 78 1015.9
20260505052743 55 359 0.0 0.9 0.00 0.00 0.00 78 1015.9
20260505052240 55 358 1.7 1.7 0.00 0.00 0.00 78 1015.8
20260505051736 55 355 0.0 0.0 0.00 0.00 0.00 78 1016.0
20260505051234 55 5 1.7 1.7 0.00 0.00 0.00 78 1015.7
20260505050732 55 345 0.0 0.9 0.00 0.00 0.00 77 1015.9
20260505050230 56 348 0.9 0.9 0.00 0.00 0.00 76 1015.9
20260505041700 0 0.0 0.0 0.00 0.00 0.00 1015.5
20260505041157 0 0.0 0.0 0.00 0.00 0.00 1015.4
20260505040654 57 350 0.0 0.9 0.00 0.00 0.00 69 1015.4
20260505040151 57 350 0.0 0.9 0.00 0.00 0.00 69 1015.2
20260505035648 0 0.0 0.0 0.00 0.00 0.00 1015.2
20260505035144 57 356 0.0 0.0 0.00 0.00 0.00 69 1015.0
20260505034641 57 356 0.0 0.0 0.00 0.00 0.00 69 1014.9
20260505034138 57 347 0.0 0.0 0.00 0.00 0.00 70 1014.7
20260505033634 58 351 0.0 0.0 0.00 0.00 0.00 70 1014.6
20260505033133 58 249 1.7 1.7 0.00 0.00 0.00 70 1014.9
20260505032630 57 358 0.0 0.0 0.00 0.00 0.00 71 1014.6
20260505032126 57 354 0.0 0.0 0.00 0.00 0.00 70 1014.5
20260505031624 57 8 2.6 2.6 0.00 0.00 0.00 70 1014.5
20260505031120 57 8 2.6 2.6 0.00 0.00 0.00 70 1014.7
20260505030617 57 355 0.0 0.0 0.00 0.00 0.00 71 1014.8
20260505030113 57 348 1.7 1.7 0.00 0.00 0.00 70 1014.6
20260505025609 57 358 0.9 1.7 0.00 0.00 0.00 70 1014.8
20260505025108 58 12 1.7 1.7 0.00 0.00 0.00 70 1014.8
20260505024605 58 28 0.9 1.7 0.00 0.00 0.00 70 1014.8
20260505024102 58 314 0.9 0.9 0.00 0.00 0.00 69 1014.5
20260505023559 58 238 3.5 4.3 0.00 0.00 0.00 68 1014.6
20260505023057 59 359 1.7 1.7 0.00 0.00 0.00 66 1014.6
20260505022554 59 8 1.7 1.7 0.00 0.00 0.00 65 1014.7
20260505022051 59 359 2.6 2.6 0.00 0.00 0.00 65 1014.5
20260505021547 59 354 0.0 0.9 0.00 0.00 0.00 65 1014.6
20260505021044 59 357 0.0 0.9 0.00 0.00 0.00 65 1014.6
20260505020544 59 12 2.6 4.3 0.00 0.00 0.00 65 1014.5
20260505020041 59 0 0.9 1.7 0.00 0.00 0.00 66 1014.4
20260505015538 59 19 1.7 1.7 0.00 0.00 0.00 67 1014.4
20260505015035 59 353 0.9 0.9 0.00 0.00 0.00 67 1014.5
20260505014532 59 330 2.6 4.3 0.00 0.00 0.00 66 1014.3
20260505014029 60 10 2.6 2.6 0.00 0.00 0.00 66 1014.4
20260505013526 60 2 0.9 1.7 0.00 0.00 0.00 66 1014.4
20260505013023 60 359 1.7 1.7 0.00 0.00 0.00 66 1014.7
20260505012522 60 350 1.7 1.7 0.00 0.00 0.00 66 1014.5
20260505012018 60 350 0.0 0.0 0.00 0.00 0.00 66 1014.8
20260505011513 60 353 1.7 1.7 0.00 0.00 0.00 66 1014.5
20260505011011 60 350 0.9 0.9 0.00 0.00 0.00 66 1014.7
20260505010506 61 342 0.9 0.9 0.00 0.00 0.00 64 1014.6
20260505010003 61 340 0.0 0.9 0.00 0.00 0.00 64 1014.8
20260505005459 61 343 0.9 0.9 0.00 0.00 0.00 65 1014.8
20260505004957 61 279 1.7 2.6 0.00 0.00 0.00 65 1014.8
20260505004454 61 8 0.9 1.7 0.00 0.00 0.00 66 1014.9
20260505003951 60 338 0.9 1.7 0.00 0.00 0.00 66 1014.9
20260505003448 60 325 0.9 1.7 0.00 0.00 0.00 66 1015.0
20260505002944 61 338 0.9 0.9 0.00 0.00 0.00 67 1015.0
20260505002440 61 328 3.5 4.3 0.00 0.00 0.00 66 1014.7
20260505001939 61 341 0.0 0.9 0.00 0.00 0.00 66 1014.8
20260505001436 62 316 1.7 1.7 0.00 0.00 0.00 64 1014.8
20260505000933 62 6 2.6 2.6 0.00 0.00 0.00 64 1014.7
20260505000431 64 355 1.7 1.7 0.00 0.00 0.00 63 1014.7
20260504235927 63 309 0.0 0.9 0.00 0.00 0.00 64 1014.3
20260504235425 63 286 1.7 1.7 0.00 0.00 0.00 64 1014.6
20260504234921 61 357 0.9 1.7 0.00 0.00 0.00 66 1014.6
20260504234419 62 319 0.9 1.7 0.00 0.00 0.00 66 1014.6
20260504233915 62 353 0.9 0.9 0.00 0.00 0.00 65 1014.6
20260504233411 62 340 0.0 0.9 0.00 0.00 0.00 63 1014.6
20260504232908 61 14 0.0 0.0 0.00 0.00 0.00 65 1014.7
20260504232405 61 355 0.9 1.7 0.00 0.00 0.00 64 1014.5
20260504231901 62 334 0.0 0.9 0.00 0.00 0.00 64 1014.5
20260504231358 62 333 0.0 0.0 0.00 0.00 0.00 64 1014.7
20260504230854 61 357 0.0 0.0 0.00 0.00 0.00 65 1014.6
20260504230352 61 329 0.0 0.9 0.00 0.00 0.00 65 1014.6
20260504225850 61 337 0.0 0.0 0.00 0.00 0.00 68 1014.7
20260504225346 61 347 0.0 0.0 0.00 0.00 0.00 69 1014.7
20260504224844 61 324 0.0 0.0 0.00 0.00 0.00 70 1014.8
20260504224341 61 292 0.9 0.9 0.00 0.00 0.00 68 1014.5
20260504223837 61 319 0.9 0.9 0.00 0.00 0.00 66 1014.7
20260504223333 61 8 0.0 0.9 0.00 0.00 0.00 64 1014.6
20260504222830 61 0 0.0 0.0 0.00 0.00 0.00 65 1014.7
20260504222327 61 359 0.0 0.0 0.00 0.00 0.00 65 1014.9
20260504221825 61 358 0.0 0.9 0.00 0.00 0.00 65 1014.7
20260504221321 61 5 0.9 0.9 0.00 0.00 0.00 65 1014.8
20260504220818 62 355 1.7 1.7 0.00 0.00 0.00 64 1014.9
20260504220315 62 18 0.0 0.0 0.00 0.00 0.00 64 1014.9
20260504215813 62 7 0.0 0.0 0.00 0.00 0.00 64 1014.8
20260504215309 62 323 0.0 0.0 0.00 0.00 0.00 64 1014.9
20260504214805 62 351 0.0 0.0 0.00 0.00 0.00 64 1015.0
20260504214302 62 338 0.9 0.9 0.00 0.00 0.00 63 1014.8
20260504213758 63 347 0.9 0.9 0.00 0.00 0.00 62 1015.1
20260504213255 63 294 0.9 0.9 0.00 0.00 0.00 62 1014.9
20260504212752 62 337 0.9 0.9 0.00 0.00 0.00 63 1015.1
20260504212248 62 236 3.5 5.2 0.00 0.00 0.00 63 1014.9
20260504211746 62 225 2.6 5.2 0.00 0.00 0.00 62 1015.1
20260504211241 62 257 3.5 4.3 0.00 0.00 0.00 62 1015.2
20260504210739 62 206 0.9 1.7 0.00 0.00 0.00 63 1015.4
20260504210236 62 206 0.9 1.7 0.00 0.00 0.00 63 1015.3
20260504205733 62 323 1.7 1.7 0.00 0.00 0.00 63 1015.4
20260504205231 62 323 1.7 1.7 0.00 0.00 0.00 63 1015.3
20260504204729 61 322 0.0 0.9 0.00 0.00 0.00 64 1015.4
20260504204227 61 248 1.7 1.7 0.00 0.00 0.00 64 1015.4